Location: Newark
(38.3460°N, 140.9975°E)
Time: 04:33:21
(UTC+00:00)

Hubble Space Telescope - Visible Passes

Search period start: 14 November 2019 00:00
Search period end: 24 November 2019 00:00
Orbit: 536 x 540 km, 28.5° (Epoch: 13 November)

Date Brightness Start Highest point End Pass type
(mag) Time Alt. Az. Time Alt. Az. Time Alt. Az.
19 Nov 3.2 08:33:50 10° S 08:34:43 11° SSE 08:35:35 10° SSE visible
20 Nov 3.2 08:22:13 10° S 08:24:00 12° SSE 08:25:46 10° SE visible
20 Nov 3.6 10:01:27 10° SW 10:02:02 13° SW 10:02:02 13° SW visible
21 Nov 3.1 08:11:01 10° SSW 08:13:16 14° SSE 08:15:32 10° SE visible
21 Nov 3.3 09:50:43 10° SW 09:52:03 16° SSW 09:52:03 16° SSW visible
22 Nov 3.0 08:00:00 10° SSW 08:02:34 16° SSE 08:05:08 10° SE visible
22 Nov 3.0 09:40:02 10° SW 09:42:05 19° SSW 09:42:05 19° SSW visible
23 Nov 3.0 07:49:05 10° SSW 07:51:52 18° S 07:54:39 10° SE visible
23 Nov 2.8 09:29:23 10° SW 09:32:07 20° S 09:32:07 20° S visible
